| time (UTC) | temp F | wind direction | speed MPH | gust MPH | rain 1hr in | rain 24hr in | rain mn in | humidity % | barometer mb |
| 20260831062405 | 61 | 135 | 0.0 | 0.0 | 0.00 | 0.00 | 0.00 | 90 | 1020.2 |
| 20260831061904 | 61 | 135 | 0.0 | 0.0 | 0.00 | 0.00 | 0.00 | 90 | 1020.2 |
| 20260831061405 | 61 | 135 | 0.0 | 0.0 | 0.00 | 0.00 | 0.00 | 90 | 1020.2 |
| 20260831060905 | 61 | 135 | 0.0 | 2.0 | 0.00 | 0.00 | 0.00 | 90 | 1020.2 |
| 20260831060405 | 61 | 135 | 0.0 | 0.0 | 0.00 | 0.00 | 0.00 | 90 | 1020.1 |
| 20260831055904 | 61 | 135 | 0.0 | 0.0 | 0.00 | 0.00 | 0.00 | 89 | 1020.1 |
| 20260831055405 | 61 | 135 | 0.0 | 7.0 | 0.00 | 0.00 | 0.00 | 89 | 1020.1 |
| 20260831054905 | 61 | 98 | 1.0 | 5.0 | 0.00 | 0.00 | 0.00 | 89 | 1020.0 |
| 20260831054405 | 61 | 124 | 2.0 | 9.0 | 0.00 | 0.00 | 0.00 | 89 | 1020.0 |
| 20260831053905 | 61 | 140 | 2.0 | 9.0 | 0.00 | 0.00 | 0.00 | 89 | 1020.1 |
| 20260831052907 | 61 | 116 | 1.0 | 7.0 | 0.00 | 0.00 | 0.00 | 89 | 1020.0 |
| 20260831052405 | 61 | 146 | 2.0 | 8.0 | 0.00 | 0.00 | 0.00 | 89 | 1020.0 |
| 20260831051404 | 61 | 100 | 1.0 | 8.0 | 0.00 | 0.00 | 0.00 | 88 | 1019.9 |
| 20260831050905 | 61 | 104 | 0.0 | 7.0 | 0.00 | 0.00 | 0.00 | 88 | 1019.9 |
| 20260831050405 | 61 | 146 | 1.0 | 6.0 | 0.00 | 0.00 | 0.00 | 88 | 1020.0 |
| 20260831045904 | 61 | 109 | 0.0 | 8.0 | 0.00 | 0.00 | 0.00 | 88 | 1020.0 |
| 20260831044905 | 61 | 114 | 0.0 | 7.0 | 0.00 | 0.00 | 0.00 | 87 | 1020.0 |
| 20260831044405 | 61 | 131 | 1.0 | 3.0 | 0.00 | 0.00 | 0.00 | 87 | 1020.0 |
| 20260831043906 | 61 | 162 | 0.0 | 0.0 | 0.00 | 0.00 | 0.00 | 87 | 1020.0 |
| 20260831043405 | 61 | 170 | 0.0 | 0.0 | 0.00 | 0.00 | 0.00 | 87 | 1020.0 |
| 20260831042905 | 62 | 53 | 0.0 | 3.0 | 0.00 | 0.00 | 0.00 | 86 | 1020.0 |
| 20260831042404 | 62 | 109 | 1.0 | 6.0 | 0.00 | 0.00 | 0.00 | 86 | 1020.0 |
| 20260831041905 | 62 | 156 | 0.0 | 6.0 | 0.00 | 0.00 | 0.00 | 86 | 1020.0 |
| 20260831041405 | 62 | 86 | 0.0 | 6.0 | 0.00 | 0.00 | 0.00 | 86 | 1020.0 |
| 20260831040905 | 62 | 83 | 0.0 | 7.0 | 0.00 | 0.00 | 0.00 | 86 | 1020.0 |
| 20260831035404 | 62 | 125 | 4.0 | 12.0 | 0.00 | 0.00 | 0.00 | 85 | 1020.1 |
| 20260831034404 | 62 | 134 | 0.0 | 5.0 | 0.00 | 0.00 | 0.00 | 85 | 1020.1 |
| 20260831033905 | 62 | 120 | 1.0 | 6.0 | 0.00 | 0.00 | 0.00 | 85 | 1020.2 |
| 20260831033405 | 62 | 112 | 0.0 | 3.0 | 0.00 | 0.00 | 0.00 | 85 | 1020.1 |
| 20260831032405 | 62 | 123 | 1.0 | 9.0 | 0.00 | 0.00 | 0.00 | 84 | 1020.2 |
| 20260831031905 | 62 | 129 | 1.0 | 6.0 | 0.00 | 0.00 | 0.00 | 85 | 1020.2 |
| 20260831031404 | 62 | 134 | 0.0 | 0.0 | 0.00 | 0.00 | 0.00 | 84 | 1020.2 |
| 20260831030905 | 62 | 131 | 1.0 | 6.0 | 0.00 | 0.00 | 0.00 | 84 | 1020.2 |
| 20260831030405 | 62 | 134 | 0.0 | 6.0 | 0.00 | 0.00 | 0.00 | 84 | 1020.1 |
| 20260831025905 | 62 | 130 | 0.0 | 5.0 | 0.00 | 0.00 | 0.00 | 84 | 1020.3 |
| 20260831025405 | 62 | 156 | 1.0 | 7.0 | 0.00 | 0.00 | 0.00 | 84 | 1020.3 |
| 20260831024905 | 62 | 117 | 2.0 | 8.0 | 0.00 | 0.00 | 0.00 | 84 | 1020.4 |
| 20260831024404 | 62 | 148 | 0.0 | 8.0 | 0.00 | 0.00 | 0.00 | 84 | 1020.4 |
| 20260831023905 | 62 | 118 | 0.0 | 3.0 | 0.00 | 0.00 | 0.00 | 84 | 1020.4 |
| 20260831023405 | 62 | 144 | 1.0 | 5.0 | 0.00 | 0.00 | 0.00 | 84 | 1020.4 |
| 20260831022905 | 62 | 135 | 1.0 | 7.0 | 0.00 | 0.00 | 0.00 | 84 | 1020.4 |
| 20260831022404 | 62 | 90 | 0.0 | 1.0 | 0.00 | 0.00 | 0.00 | 84 | 1020.4 |
| 20260831021904 | 62 | 163 | 1.0 | 8.0 | 0.00 | 0.00 | 0.00 | 84 | 1020.4 |
| 20260831021405 | 62 | 164 | 0.0 | 3.0 | 0.00 | 0.00 | 0.00 | 84 | 1020.4 |
| 20260831020905 | 62 | 107 | 2.0 | 12.0 | 0.00 | 0.00 | 0.00 | 84 | 1020.3 |
| 20260831015905 | 62 | 142 | 1.0 | 6.0 | 0.00 | 0.00 | 0.00 | 84 | 1020.4 |
| 20260831015404 | 63 | 40 | 3.0 | 8.0 | 0.00 | 0.00 | 0.00 | 84 | 1020.4 |
| 20260831014905 | 63 | 106 | 1.0 | 3.0 | 0.00 | 0.00 | 0.00 | 84 | 1020.4 |
| 20260831013905 | 63 | 168 | 2.0 | 10.0 | 0.00 | 0.00 | 0.00 | 85 | 1020.4 |
| 20260831013405 | 63 | 122 | 1.0 | 12.0 | 0.00 | 0.00 | 0.00 | 85 | 1020.4 |
| 20260831012405 | 63 | 98 | 0.0 | 8.0 | 0.00 | 0.00 | 0.00 | 85 | 1020.3 |
| 20260831011905 | 63 | 48 | 1.0 | 5.0 | 0.00 | 0.00 | 0.00 | 85 | 1020.2 |
| 20260831011404 | 63 | 126 | 1.0 | 12.0 | 0.00 | 0.00 | 0.00 | 85 | 1020.3 |
| 20260831010904 | 63 | 86 | 0.0 | 3.0 | 0.00 | 0.00 | 0.00 | 85 | 1020.3 |
| 20260831010405 | 63 | 139 | 0.0 | 2.0 | 0.00 | 0.00 | 0.00 | 85 | 1020.3 |
| 20260831005904 | 63 | 109 | 1.0 | 8.0 | 0.00 | 0.00 | 0.00 | 85 | 1020.3 |
| 20260831005405 | 63 | 144 | 0.0 | 5.0 | 0.00 | 0.00 | 0.00 | 85 | 1020.3 |
| 20260831004904 | 63 | 22 | 0.0 | 0.0 | 0.00 | 0.00 | 0.00 | 85 | 1020.3 |
| 20260831004405 | 63 | 19 | 0.0 | 6.0 | 0.00 | 0.00 | 0.00 | 85 | 1020.2 |
| 20260831003904 | 63 | 122 | 2.0 | 9.0 | 0.00 | 0.00 | 0.00 | 85 | 1020.3 |
| 20260831003405 | 63 | 140 | 3.0 | 10.0 | 0.00 | 0.00 | 0.00 | 85 | 1020.2 |
| 20260831002905 | 63 | 83 | 2.0 | 12.0 | 0.00 | 0.00 | 0.00 | 85 | 1020.2 |
| 20260831002404 | 63 | 122 | 2.0 | 6.0 | 0.00 | 0.00 | 0.00 | 85 | 1020.3 |
| 20260831001904 | 63 | 61 | 0.0 | 1.0 | 0.00 | 0.00 | 0.00 | 85 | 1020.3 |
| 20260831001404 | 63 | 122 | 1.0 | 8.0 | 0.00 | 0.00 | 0.00 | 84 | 1020.4 |
| 20260831000904 | 63 | 111 | 0.0 | 7.0 | 0.00 | 0.00 | 0.00 | 84 | 1020.4 |
| 20260831000405 | 63 | 85 | 2.0 | 7.0 | 0.00 | 0.00 | 0.00 | 84 | 1020.4 |
| 20260830235905 | 63 | 84 | 1.0 | 10.0 | 0.00 | 0.00 | 0.00 | 84 | 1020.4 |
| 20260830235404 | 64 | 100 | 1.0 | 10.0 | 0.00 | 0.00 | 0.00 | 84 | 1020.5 |
| 20260830234904 | 64 | 117 | 1.0 | 10.0 | 0.00 | 0.00 | 0.00 | 83 | 1020.4 |
| 20260830234405 | 64 | 160 | 5.0 | 10.0 | 0.00 | 0.00 | 0.00 | 83 | 1020.4 |
| 20260830233904 | 64 | 92 | 5.0 | 14.0 | 0.00 | 0.00 | 0.00 | 83 | 1020.4 |
| 20260830233404 | 64 | 128 | 2.0 | 8.0 | 0.00 | 0.00 | 0.00 | 83 | 1020.5 |
| 20260830232904 | 64 | 98 | 2.0 | 12.0 | 0.00 | 0.00 | 0.00 | 83 | 1020.6 |
| 20260830232404 | 64 | 93 | 3.0 | 14.0 | 0.00 | 0.00 | 0.00 | 82 | 1020.5 |
| 20260830231904 | 64 | 53 | 3.0 | 9.0 | 0.00 | 0.00 | 0.00 | 82 | 1020.5 |
| 20260830231404 | 64 | 69 | 3.0 | 8.0 | 0.00 | 0.00 | 0.00 | 82 | 1020.5 |
| 20260830230404 | 64 | 90 | 2.0 | 7.0 | 0.00 | 0.00 | 0.00 | 81 | 1020.4 |
| 20260830225905 | 65 | 120 | 3.0 | 12.0 | 0.00 | 0.00 | 0.00 | 81 | 1020.4 |
| 20260830225405 | 65 | 103 | 2.0 | 16.0 | 0.00 | 0.00 | 0.00 | 81 | 1020.4 |
| 20260830224904 | 65 | 134 | 4.0 | 12.0 | 0.00 | 0.00 | 0.00 | 81 | 1020.4 |
| 20260830224404 | 65 | 109 | 3.0 | 12.0 | 0.00 | 0.00 | 0.00 | 81 | 1020.5 |
| 20260830223405 | 65 | 134 | 5.0 | 12.0 | 0.00 | 0.00 | 0.00 | 80 | 1020.4 |
| 20260830222404 | 65 | 124 | 2.0 | 8.0 | 0.00 | 0.00 | 0.00 | 80 | 1020.6 |
| 20260830221905 | 66 | 27 | 2.0 | 8.0 | 0.00 | 0.00 | 0.00 | 80 | 1020.4 |
| 20260830221405 | 66 | 103 | 2.0 | 9.0 | 0.00 | 0.00 | 0.00 | 80 | 1020.4 |
| 20260830220904 | 66 | 91 | 1.0 | 7.0 | 0.00 | 0.00 | 0.00 | 80 | 1020.5 |
| 20260830220405 | 66 | 84 | 2.0 | 9.0 | 0.00 | 0.00 | 0.00 | 79 | 1020.5 |
| 20260830215905 | 66 | 44 | 0.0 | 8.0 | 0.00 | 0.00 | 0.00 | 79 | 1020.5 |
| 20260830214904 | 66 | 77 | 1.0 | 8.0 | 0.00 | 0.00 | 0.00 | 78 | 1020.4 |
| 20260830214404 | 67 | 140 | 2.0 | 8.0 | 0.00 | 0.00 | 0.00 | 78 | 1020.5 |
| 20260830213904 | 67 | 116 | 2.0 | 10.0 | 0.00 | 0.00 | 0.00 | 77 | 1020.4 |
| 20260830213404 | 67 | 110 | 1.0 | 13.0 | 0.00 | 0.00 | 0.00 | 76 | 1020.4 |
| 20260830212904 | 67 | 359 | 2.0 | 13.0 | 0.00 | 0.00 | 0.00 | 76 | 1020.3 |
| 20260830212405 | 68 | 104 | 1.0 | 12.0 | 0.00 | 0.00 | 0.00 | 76 | 1020.5 |
| 20260830211904 | 68 | 108 | 3.0 | 12.0 | 0.00 | 0.00 | 0.00 | 75 | 1020.5 |
| 20260830211405 | 68 | 156 | 1.0 | 7.0 | 0.00 | 0.00 | 0.00 | 75 | 1020.5 |
| 20260830210404 | 68 | 109 | 5.0 | 10.0 | 0.00 | 0.00 | 0.00 | 73 | 1020.3 |
| 20260830205905 | 69 | 59 | 6.0 | 13.0 | 0.00 | 0.00 | 0.00 | 73 | 1020.3 |
| 20260830205404 | 69 | 72 | 4.0 | 12.0 | 0.00 | 0.00 | 0.00 | 72 | 1020.3 |
| 20260830204905 | 69 | 98 | 3.0 | 12.0 | 0.00 | 0.00 | 0.00 | 71 | 1020.3 |
| 20260830204404 | 69 | 131 | 3.0 | 8.0 | 0.00 | 0.00 | 0.00 | 71 | 1020.4 |
| 20260830203904 | 70 | 98 | 1.0 | 8.0 | 0.00 | 0.00 | 0.00 | 70 | 1020.3 |
| 20260830203404 | 70 | 98 | 5.0 | 12.0 | 0.00 | 0.00 | 0.00 | 69 | 1020.3 |
| 20260830202905 | 70 | 108 | 1.0 | 9.0 | 0.00 | 0.00 | 0.00 | 69 | 1020.1 |
| 20260830202405 | 71 | 124 | 3.0 | 10.0 | 0.00 | 0.00 | 0.00 | 68 | 1020.1 |
| 20260830201905 | 71 | 123 | 1.0 | 6.0 | 0.00 | 0.00 | 0.00 | 68 | 1020.1 |
| 20260830200405 | 72 | 104 | 3.0 | 7.0 | 0.00 | 0.00 | 0.00 | 67 | 1019.9 |
| 20260830195904 | 72 | 118 | 2.0 | 10.0 | 0.00 | 0.00 | 0.00 | 66 | 1019.9 |
| 20260830195404 | 73 | 137 | 0.0 | 5.0 | 0.00 | 0.00 | 0.00 | 65 | 1019.9 |
| 20260830194905 | 73 | 136 | 3.0 | 7.0 | 0.00 | 0.00 | 0.00 | 64 | 1019.9 |
| 20260830194405 | 73 | 109 | 1.0 | 8.0 | 0.00 | 0.00 | 0.00 | 63 | 1019.6 |
| 20260830193905 | 74 | 57 | 1.0 | 9.0 | 0.00 | 0.00 | 0.00 | 62 | 1019.7 |
| 20260830145406 | 84 | 124 | 1.0 | 9.0 | 0.00 | 0.00 | 0.00 | 49 | 1019.2 |
| 20260830144906 | 84 | 76 | 2.0 | 9.0 | 0.00 | 0.00 | 0.00 | 51 | 1019.3 |
| 20260830144407 | 84 | 123 | 2.0 | 14.0 | 0.00 | 0.00 | 0.00 | 50 | 1019.2 |
| 20260830142907 | 85 | 195 | 1.0 | 5.0 | 0.00 | 0.00 | 0.00 | 49 | 1019.3 |
| 20260830141907 | 85 | 143 | 5.0 | 14.0 | 0.00 | 0.00 | 0.00 | 49 | 1019.4 |
| 20260830141407 | 85 | 247 | 1.0 | 8.0 | 0.00 | 0.00 | 0.00 | 48 | 1019.3 |
| 20260830140906 | 85 | 97 | 2.0 | 13.0 | 0.00 | 0.00 | 0.00 | 49 | 1019.4 |
| 20260830135407 | 85 | 116 | 3.0 | 12.0 | 0.00 | 0.00 | 0.00 | 48 | 1019.4 |
| 20260830134407 | 84 | 129 | 4.0 | 12.0 | 0.00 | 0.00 | 0.00 | 47 | 1019.5 |
| 20260830133906 | 84 | 6 | 1.0 | 9.0 | 0.00 | 0.00 | 0.00 | 48 | 1019.4 |
| 20260830132907 | 84 | 306 | 2.0 | 12.0 | 0.00 | 0.00 | 0.00 | 49 | 1019.5 |
| 20260830132407 | 85 | 236 | 3.0 | 12.0 | 0.00 | 0.00 | 0.00 | 49 | 1019.5 |
| 20260830131906 | 85 | 4 | 0.0 | 6.0 | 0.00 | 0.00 | 0.00 | 50 | 1019.6 |
| 20260830130906 | 84 | 123 | 3.0 | 9.0 | 0.00 | 0.00 | 0.00 | 49 | 1019.7 |
| 20260830125907 | 84 | 336 | 1.0 | 12.0 | 0.00 | 0.00 | 0.00 | 51 | 1019.8 |
| 20260830125407 | 84 | 33 | 1.0 | 8.0 | 0.00 | 0.00 | 0.00 | 51 | 1019.9 |
| 20260830124907 | 83 | 122 | 1.0 | 10.0 | 0.00 | 0.00 | 0.00 | 51 | 1019.9 |
| 20260830124407 | 83 | 80 | 1.0 | 13.0 | 0.00 | 0.00 | 0.00 | 50 | 1019.9 |
| 20260830123907 | 83 | 76 | 3.0 | 12.0 | 0.00 | 0.00 | 0.00 | 50 | 1019.9 |
| 20260830123407 | 83 | 99 | 1.0 | 10.0 | 0.00 | 0.00 | 0.00 | 51 | 1019.9 |
| 20260830122907 | 84 | 154 | 3.0 | 12.0 | 0.00 | 0.00 | 0.00 | 51 | 1020.0 |
| 20260830122407 | 83 | 198 | 0.0 | 8.0 | 0.00 | 0.00 | 0.00 | 53 | 1020.0 |
| 20260830121906 | 82 | 167 | 3.0 | 10.0 | 0.00 | 0.00 | 0.00 | 55 | 1020.1 |
| 20260830120907 | 82 | 290 | 1.0 | 10.0 | 0.00 | 0.00 | 0.00 | 55 | 1020.1 |
| 20260830115906 | 82 | 148 | 1.0 | 10.0 | 0.00 | 0.00 | 0.00 | 57 | 1020.1 |
| 20260830114906 | 81 | 119 | 1.0 | 8.0 | 0.00 | 0.00 | 0.00 | 58 | 1020.3 |
| 20260830114407 | 81 | 118 | 5.0 | 10.0 | 0.00 | 0.00 | 0.00 | 57 | 1020.3 |
| 20260830113907 | 82 | 102 | 2.0 | 12.0 | 0.00 | 0.00 | 0.00 | 57 | 1020.4 |
| 20260830113407 | 82 | 164 | 3.0 | 12.0 | 0.00 | 0.00 | 0.00 | 57 | 1020.4 |
| 20260830112907 | 81 | 96 | 0.0 | 3.0 | 0.00 | 0.00 | 0.00 | 60 | 1020.4 |
| 20260830112406 | 80 | 114 | 1.0 | 7.0 | 0.00 | 0.00 | 0.00 | 62 | 1020.5 |
| 20260830111906 | 80 | 109 | 1.0 | 12.0 | 0.00 | 0.00 | 0.00 | 63 | 1020.5 |
| 20260830111406 | 80 | 125 | 3.0 | 13.0 | 0.00 | 0.00 | 0.00 | 62 | 1020.6 |
| 20260830105906 | 79 | 166 | 2.0 | 12.0 | 0.00 | 0.00 | 0.00 | 62 | 1020.7 |
| 20260830104907 | 79 | 91 | 3.0 | 12.0 | 0.00 | 0.00 | 0.00 | 64 | 1020.8 |
| 20260830104406 | 79 | 96 | 1.0 | 8.0 | 0.00 | 0.00 | 0.00 | 66 | 1020.7 |
| 20260830103906 | 79 | 98 | 3.0 | 10.0 | 0.00 | 0.00 | 0.00 | 66 | 1020.6 |
| 20260830103407 | 79 | 82 | 1.0 | 5.0 | 0.00 | 0.00 | 0.00 | 66 | 1020.7 |
| 20260830102406 | 78 | 165 | 1.0 | 9.0 | 0.00 | 0.00 | 0.00 | 68 | 1020.6 |
| 20260830101907 | 78 | 130 | 3.0 | 12.0 | 0.00 | 0.00 | 0.00 | 67 | 1020.6 |
| 20260830100906 | 78 | 90 | 4.0 | 12.0 | 0.00 | 0.00 | 0.00 | 69 | 1020.6 |
| 20260830100407 | 77 | 72 | 0.0 | 9.0 | 0.00 | 0.00 | 0.00 | 70 | 1020.6 |
| 20260830095906 | 77 | 104 | 1.0 | 7.0 | 0.00 | 0.00 | 0.00 | 71 | 1020.6 |
| 20260830095407 | 77 | 101 | 1.0 | 10.0 | 0.00 | 0.00 | 0.00 | 70 | 1020.5 |
| 20260830094907 | 77 | 126 | 1.0 | 9.0 | 0.00 | 0.00 | 0.00 | 72 | 1020.5 |
| 20260830094407 | 77 | 97 | 5.0 | 10.0 | 0.00 | 0.00 | 0.00 | 72 | 1020.5 |
| 20260830093907 | 77 | 84 | 1.0 | 6.0 | 0.00 | 0.00 | 0.00 | 72 | 1020.4 |
| 20260830093407 | 77 | 144 | 2.0 | 6.0 | 0.00 | 0.00 | 0.00 | 72 | 1020.5 |
| 20260830092906 | 77 | 105 | 2.0 | 8.0 | 0.00 | 0.00 | 0.00 | 72 | 1020.4 |
| 20260830092407 | 76 | 183 | 3.0 | 10.0 | 0.00 | 0.00 | 0.00 | 73 | 1020.4 |
| 20260830091407 | 76 | 105 | 3.0 | 9.0 | 0.00 | 0.00 | 0.00 | 74 | 1020.4 |
| 20260830090906 | 76 | 124 | 2.0 | 12.0 | 0.00 | 0.00 | 0.00 | 74 | 1020.3 |
| 20260830090406 | 75 | 226 | 0.0 | 6.0 | 0.00 | 0.00 | 0.00 | 76 | 1020.2 |
| 20260830085906 | 75 | 138 | 1.0 | 8.0 | 0.00 | 0.00 | 0.00 | 76 | 1020.2 |
| 20260830084906 | 74 | 138 | 1.0 | 3.0 | 0.00 | 0.00 | 0.00 | 77 | 1020.1 |
| 20260830083907 | 74 | 132 | 2.0 | 8.0 | 0.00 | 0.00 | 0.00 | 78 | 1020.1 |
| 20260830083406 | 74 | 86 | 0.0 | 3.0 | 0.00 | 0.00 | 0.00 | 79 | 1020.0 |
| 20260830081906 | 73 | 157 | 1.0 | 9.0 | 0.00 | 0.00 | 0.00 | 81 | 1019.9 |
| 20260830081406 | 72 | 180 | 0.0 | 8.0 | 0.00 | 0.00 | 0.00 | 83 | 1019.9 |
| 20260830080407 | 72 | 95 | 0.0 | 8.0 | 0.00 | 0.00 | 0.00 | 84 | 1019.9 |
| 20260830075906 | 72 | 69 | 0.0 | 8.0 | 0.00 | 0.00 | 0.00 | 84 | 1019.9 |
| 20260830075407 | 72 | 112 | 1.0 | 7.0 | 0.00 | 0.00 | 0.00 | 84 | 1019.9 |
| 20260830074906 | 71 | 158 | 0.0 | 3.0 | 0.00 | 0.00 | 0.00 | 85 | 1019.8 |
| 20260830074406 | 71 | 157 | 1.0 | 8.0 | 0.00 | 0.00 | 0.00 | 86 | 1019.8 |
| 20260830073906 | 71 | 116 | 2.0 | 9.0 | 0.00 | 0.00 | 0.00 | 86 | 1019.7 |
| 20260830072906 | 70 | 150 | 1.0 | 5.0 | 0.00 | 0.00 | 0.00 | 88 | 1019.6 |
| 20260830072406 | 70 | 127 | 1.0 | 8.0 | 0.00 | 0.00 | 0.00 | 89 | 1019.6 |
| 20260830071907 | 70 | 65 | 0.0 | 1.0 | 0.00 | 0.00 | 0.00 | 90 | 1019.5 |
| 20260830071407 | 70 | 91 | 1.0 | 5.0 | 0.00 | 0.00 | 0.00 | 90 | 1019.5 |
| 20260830070907 | 69 | 65 | 0.0 | 1.0 | 0.00 | 0.00 | 0.00 | 91 | 1019.4 |
| 20260830065906 | 69 | 146 | 0.0 | 2.0 | 0.00 | 0.00 | 0.00 | 92 | 1019.4 |
| 20260830065406 | 68 | 148 | 0.0 | 2.0 | 0.00 | 0.00 | 0.00 | 92 | 1019.4 |
| 20260830064407 | 68 | 130 | 0.0 | 7.0 | 0.00 | 0.00 | 0.00 | 93 | 1019.3 |
| 20260830063907 | 68 | 90 | 0.0 | 5.0 | 0.00 | 0.00 | 0.00 | 93 | 1019.2 |
| 20260830063407 | 67 | 137 | 0.0 | 0.0 | 0.00 | 0.00 | 0.00 | 93 | 1019.2 |
| 20260830062907 | 67 | 137 | 1.0 | 6.0 | 0.00 | 0.00 | 0.00 | 93 | 1019.0 |